Orbital Elements at Epoch 2459200.5 (2020-Dec-17.0) TDB
Reference: JPL 23 (heliocentric ecliptic J2000)
Element | Value | Uncertainty (1-sigma) | Units |
e | .2834338144473479 | 3.2672e-08 | |
a | 3.167766194208398 | 1.7432e-08 | au |
q | 2.269914138506554 | 1.0784e-07 | au |
i | 14.11772313955114 | 4.0195e-06 | deg |
node | 151.7925872583047 | 1.6205e-05 | deg |
peri | 304.4911730891827 | 1.831e-05 | deg |
M | 346.8927749963808 | 6.7993e-06 | deg |
tp | 2459275.478433143693 (2021-Mar-01.97843314) | 3.8995e-05 | TDB |
period | 2059.340243589037 5.64 | 1.6998e-05 4.654e-08 | d yr |
n | .1748132690169686 | 1.443e-09 | deg/d |
Q | 4.065618249910242 | 2.2372e-08 | au |
|
| | Orbit Determination Parameters
Additional Information
|